{"data":{"norad_id":59039,"intl_designator":"2024-038S","name":"STARLINK-31220","alt_names":[],"object_type":"PAYLOAD","status":"ACTIVE","operator":null,"country":"US","launch_date":"2024-02-25","launch_site_code":"AFETR","launch_vehicle":null,"mission":null,"orbit_class":"UNKNOWN","rcs_meters":null,"size_class":null,"mass_kg":null,"dimensions":null,"purposes":["comms"],"wikipedia_slug":null,"has_3d_model":false,"image_url":null,"decayed_at":null,"tle_current":{"epoch":"2026-09-20T13:47:13.507296Z","epoch_age_seconds":149332,"freshness":"FRESH","line1":"1 59039U 24038S   26263.57446189 -.00000030  00000+0  84364-5 0  9999","line2":"2 59039  43.0022   6.3766 0001310 268.9921  91.0781 15.27576055144568","mean_motion":15.27576055,"eccentricity":0.000131,"inclination_deg":43.0022,"raan_deg":6.3766,"arg_perigee_deg":268.9921,"mean_anomaly_deg":91.0781,"bstar":8.4364e-6,"rev_number":14456,"period_min":94.26699215968,"perigee_km":482.16209188823,"apogee_km":483.95972574034,"semimajor_km":6861.1979088143,"source":"CELESTRAK","updated_at":"2026-09-21T09:00:34.031704Z"}}}